User: anonymous   Login
Location: Unspecified
(0.0000°N, 0.0000°E)
Time: 09:24:08
(UTC+00:00)
Language:

USA 200 - Orbit

View from above orbital plane
View from above orbital plane
View from above satellite
View from above satellite

Ground track
Ground track

The orbit data is extracted from the following two-line orbital elements,

1 32706U 08010A   15057.91688611 -.00000431  00000-0  00000-0 0    07
2 32706  63.1170  97.1736 6990143 268.0099  17.7574  2.00620408    00
Epoch (UTC): 26 February 2015 22:00:18
Eccentricity: 0.6990143
inclination: 63.1170°
perigee height: 1614 km
apogee height: 38739 km
right ascension of ascending node: 97.1736°
argument of perigee: 268.0099°
revolutions per day: 2.00620408
mean anomaly at epoch: 17.7574°
orbit number at epoch: 0

The dashed part of the orbit path shows where the satellite is in the earth's shadow,  

DLR